GW0026 Weather Reports


time (UTC)temp
C
wind
direction
speed
KPH
gust
KPH
rain 1hr
cm
rain 24hr
cm
rain mn
cm
humidity
%
barometer
mb
20260504110248 5 348 0.0 0.0 0.00 0.00 0.00 85 1009.6
20260504100205 2 347 0.0 0.0 0.00 0.00 0.00 95 1009.2
20260504090128 4 347 0.0 0.0 0.00 0.00 0.00 86 1009.1
20260504081558 6 347 0.0 0.0 0.00 0.00 0.00 79 1009.5
20260504081054 6 347 0.0 0.0 0.00 0.00 0.00 79 1009.6
20260504080551 6 347 0.0 0.0 0.00 0.00 0.00 78 1009.6
20260504050404 7 353 0.0 0.0 0.00 0.00 0.00 73 1010.0
20260504045901 7 353 0.0 0.0 0.00 0.00 0.00 74 1009.9
20260504045356 7 353 0.0 0.0 0.00 0.00 0.00 74 1009.9
20260504044853 7 353 0.0 0.0 0.00 0.00 0.00 73 1010.0
20260504044350 7 354 0.0 0.0 0.00 0.00 0.00 73 1010.0
20260504043848 7 354 0.0 0.0 0.00 0.00 0.00 72 1010.0
20260504043344 7 354 0.0 0.0 0.00 0.00 0.00 72 1010.1
20260504042842 7 354 0.0 0.0 0.00 0.00 0.00 72 1010.2
20260504042338 7 354 0.0 0.0 0.00 0.00 0.00 72 1010.4
20260504041834 6 347 0.0 0.0 0.00 0.00 0.00 72 1010.5
20260504041330 6 347 0.0 0.0 0.00 0.00 0.00 73 1010.5
20260504040827 6 347 0.0 0.0 0.00 0.00 0.00 72 1010.4
20260504040324 6 347 0.0 0.0 0.00 0.00 0.00 73 1010.5
20260504035820 6 347 0.0 0.0 0.00 0.00 0.00 72 1010.6
20260504035318 6 347 0.0 0.0 0.00 0.00 0.00 72 1010.6
20260504034815 6 347 0.0 0.0 0.00 0.00 0.00 71 1010.5
20260504034313 6 347 0.0 0.0 0.00 0.00 0.00 71 1010.4
20260504033809 5 348 0.0 0.0 0.00 0.00 0.00 72 1010.0
20260504033307 5 347 0.0 0.0 0.00 0.00 0.00 72 1010.2
20260504032803 5 347 0.0 0.0 0.00 0.00 0.00 73 1010.2
20260504032300 5 347 0.0 0.0 0.00 0.00 0.00 74 1010.0
20260504031757 5 347 0.0 0.0 0.00 0.00 0.00 73 1010.0
20260504031255 5 348 0.0 0.0 0.00 0.00 0.00 73 1010.0
20260504030750 5 348 0.0 0.0 0.00 0.00 0.00 72 1010.2
20260504030248 5 348 0.0 0.0 0.00 0.00 0.00 72 1010.2
20260504025744 5 347 0.0 0.0 0.00 0.00 0.00 70 1010.2
20260504025241 6 348 0.0 0.0 0.00 0.00 0.00 69 1010.0
20260504024738 6 348 0.0 0.0 0.00 0.00 0.00 69 1010.0
20260504024235 6 348 0.0 0.0 0.00 0.00 0.00 67 1010.0
20260504023732 6 348 0.0 0.0 0.00 0.00 0.00 66 1010.1
20260504023228 6 347 0.0 0.0 0.00 0.00 0.00 66 1010.0
20260504022724 7 347 0.0 0.0 0.00 0.00 0.00 65 1010.0
20260504022220 7 344 0.0 0.0 0.00 0.00 0.00 64 1010.1
20260504021718 7 355 0.0 0.0 0.00 0.00 0.00 63 1010.0
20260504021215 7 355 0.0 0.0 0.00 0.00 0.00 61 1010.0
20260504020712 7 10 0.0 0.0 0.00 0.00 0.00 59 1009.9
20260504020208 7 336 0.0 0.0 0.00 0.00 0.00 59 1010.0
20260504015704 7 333 0.0 0.0 0.00 0.00 0.00 58 1010.3
20260504015200 7 333 0.0 0.0 0.00 0.00 0.00 59 1010.1
20260504014656 7 334 0.0 0.0 0.00 0.00 0.00 58 1010.2
20260504014153 7 334 0.0 0.0 0.00 0.00 0.00 56 1010.1
20260504013651 8 334 0.0 0.0 0.00 0.00 0.00 55 1010.1
20260504013148 8 334 0.0 0.0 0.00 0.00 0.00 53 1010.3
20260504012645 8 334 0.0 0.0 0.00 0.00 0.00 53 1010.1
20260504012143 8 10 0.0 0.0 0.00 0.00 0.00 52 1010.0
20260504011639 9 350 0.0 0.0 0.00 0.00 0.00 50 1010.2
20260504011136 9 8 0.0 0.0 0.00 0.00 0.00 48 1010.0
20260504010632 9 336 0.0 0.0 0.00 0.00 0.00 48 1009.8
20260504010128 10 338 0.0 0.0 0.00 0.00 0.00 48 1009.8
20260504005625 10 353 0.0 1.6 0.00 0.00 0.00 47 1009.8
20260504005122 10 341 1.6 1.6 0.00 0.00 0.00 46 1009.8
20260504004620 10 332 0.0 0.0 0.00 0.00 0.00 45 1009.7
20260504004117 10 331 0.0 0.0 0.00 0.00 0.00 45 1009.5
20260504003613 10 314 1.6 1.6 0.00 0.00 0.00 44 1009.7
20260504003110 10 316 0.0 0.0 0.00 0.00 0.00 44 1009.5
20260504002606 10 36 0.0 1.6 0.00 0.00 0.00 43 1009.5
20260504002104 10 30 0.0 0.0 0.00 0.00 0.00 44 1009.3
20260504001602 10 70 1.6 1.6 0.00 0.00 0.00 43 1009.1
20260504001057 10 329 0.0 1.6 0.00 0.00 0.00 44 1009.2
20260504000555 11 15 0.0 0.0 0.00 0.00 0.00 42 1009.0
20260504000052 11 283 1.6 1.6 0.00 0.00 0.00 43 1009.0
20260503235550 11 351 1.6 1.6 0.00 0.00 0.00 42 1008.9
20260503235047 11 357 0.0 0.0 0.00 0.00 0.00 43 1008.9
20260503234545 11 4 1.6 1.6 0.00 0.00 0.00 43 1008.9
20260503234043 11 344 0.0 0.0 0.00 0.00 0.00 42 1008.7
20260503233539 11 330 0.0 0.0 0.00 0.00 0.00 41 1008.7
20260503233035 11 12 0.0 0.0 0.00 0.00 0.00 41 1008.4
20260503232532 11 351 3.2 3.2 0.00 0.00 0.00 39 1008.5
20260503232030 12 354 3.2 3.2 0.00 0.00 0.00 40 1008.2
20260503231528 12 342 1.6 3.2 0.00 0.00 0.00 39 1008.4
20260503231024 12 7 1.6 1.6 0.00 0.00 0.00 39 1008.2
20260503230521 12 351 1.6 3.2 0.00 0.00 0.00 37 1008.5
20260503230018 13 270 1.6 3.2 0.00 0.00 0.00 37 1008.3
20260503225515 12 11 1.6 3.2 0.00 0.00 0.00 36 1008.2
20260503225010 13 319 3.2 4.8 0.00 0.00 0.00 36 1008.1
20260503224508 13 351 1.6 3.2 0.00 0.00 0.00 35 1008.0
20260503224005 13 270 1.6 4.8 0.00 0.00 0.00 35 1008.1
20260503223503 13 223 1.6 3.2 0.00 0.00 0.00 33 1008.0
20260503222958 14 277 4.8 9.7 0.00 0.00 0.00 32 1008.1
20260503222457 14 231 6.4 8.0 0.00 0.00 0.00 31 1007.7
20260503221955 14 276 3.2 4.8 0.00 0.00 0.00 31 1007.8
20260503221453 14 307 3.2 4.8 0.00 0.00 0.00 31 1007.9
20260503220950 15 312 1.6 3.2 0.00 0.00 0.00 30 1007.7
20260503220446 14 337 1.6 3.2 0.00 0.00 0.00 29 1007.8
20260503215943 15 265 1.6 3.2 0.00 0.00 0.00 28 1007.4
20260503215439 15 329 1.6 3.2 0.00 0.00 0.00 28 1007.6
20260503214937 15 302 4.8 4.8 0.00 0.00 0.00 27 1007.6
20260503214435 15 18 1.6 1.6 0.00 0.00 0.00 29 1007.7
20260503213932 15 353 0.0 1.6 0.00 0.00 0.00 30 1007.6
20260503213430 15 345 1.6 1.6 0.00 0.00 0.00 30 1007.7
20260503212926 14 208 3.2 4.8 0.00 0.00 0.00 31 1007.8
20260503212424 15 334 3.2 3.2 0.00 0.00 0.00 31 1007.5
20260503211921 15 281 3.2 3.2 0.00 0.00 0.00 31 1007.6
20260503211418 15 141 0.0 1.6 0.00 0.00 0.00 34 1007.5
20260503210913 15 309 6.4 9.7 0.00 0.00 0.00 33 1007.6
20260503210411 14 345 1.6 1.6 0.00 0.00 0.00 34 1007.6
20260503205910 14 340 0.0 0.0 0.00 0.00 0.00 35 1007.5
20260503205408 14 353 3.2 3.2 0.00 0.00 0.00 34 1007.7
20260503204904 15 351 0.0 1.6 0.00 0.00 0.00 36 1007.9
20260503204402 15 292 3.2 3.2 0.00 0.00 0.00 34 1007.9
20260503203859 15 314 0.0 1.6 0.00 0.00 0.00 37 1007.9
20260503203356 14 42 1.6 3.2 0.00 0.00 0.00 35 1007.9
20260503202853 13 79 1.6 3.2 0.00 0.00 0.00 35 1008.1
20260503202351 13 287 1.6 1.6 0.00 0.00 0.00 39 1008.3
20260503201849 13 46 1.6 1.6 0.00 0.00 0.00 35 1008.2
20260503201346 13 74 1.6 1.6 0.00 0.00 0.00 39 1008.3
20260503200843 13 2 1.6 1.6 0.00 0.00 0.00 38 1008.6
20260503200339 13 338 0.0 1.6 0.00 0.00 0.00 39 1008.5
20260503195836 13 131 1.6 1.6 0.00 0.00 0.00 36 1008.4
20260503195333 12 345 3.2 4.8 0.00 0.00 0.00 39 1008.4
20260503194830 12 178 1.6 3.2 0.00 0.00 0.00 38 1008.8
20260503194326 13 72 1.6 1.6 0.00 0.00 0.00 38 1008.6
20260503193822 12 120 3.2 4.8 0.00 0.00 0.00 40 1008.7
20260503193318 12 326 0.0 1.6 0.00 0.00 0.00 39 1008.6
20260503192815 13 40 4.8 4.8 0.00 0.00 0.00 38 1008.9
20260503192310 12 16 0.0 0.0 0.00 0.00 0.00 39 1009.0
20260503191806 12 253 3.2 4.8 0.00 0.00 0.00 40 1009.0
20260503191303 12 51 4.8 4.8 0.00 0.00 0.00 39 1009.0
20260503190800 12 354 1.6 1.6 0.00 0.00 0.00 40 1008.9
20260503190257 12 303 1.6 3.2 0.00 0.00 0.00 41 1009.1
20260503185754 12 342 3.2 3.2 0.00 0.00 0.00 40 1009.2
20260503185250 12 284 1.6 1.6 0.00 0.00 0.00 41 1009.2
20260503184750 12 26 0.0 0.0 0.00 0.00 0.00 41 1009.2
20260503184247 11 315 1.6 1.6 0.00 0.00 0.00 41 1009.2
20260503183742 11 223 1.6 3.2 0.00 0.00 0.00 41 1009.3
20260503183240 11 85 0.0 1.6 0.00 0.00 0.00 41 1009.4
20260503182738 11 18 0.0 0.0 0.00 0.00 0.00 43 1009.4
20260503182237 12 10 1.6 1.6 0.00 0.00 0.00 42 1009.4
20260503181733 12 327 1.6 1.6 0.00 0.00 0.00 42 1009.4
20260503181230 12 281 1.6 3.2 0.00 0.00 0.00 40 1009.6
20260503180726 12 300 1.6 3.2 0.00 0.00 0.00 42 1009.4
20260503180225 11 340 0.0 1.6 0.00 0.00 0.00 43 1009.5
20260503175721 11 153 3.2 8.0 0.00 0.00 0.00 44 1009.6
20260503175219 11 40 1.6 3.2 0.00 0.00 0.00 42 1009.6
20260503174715 11 349 1.6 3.2 0.00 0.00 0.00 44 1009.7
20260503174213 11 225 1.6 1.6 0.00 0.00 0.00 46 1009.9
20260503173708 11 240 1.6 3.2 0.00 0.00 0.00 42 1009.8
20260503173204 11 32 0.0 0.0 0.00 0.00 0.00 46 1009.8
20260503172701 11 298 1.6 1.6 0.00 0.00 0.00 43 1009.9
20260503172158 11 320 1.6 1.6 0.00 0.00 0.00 42 1009.7
20260503171654 11 68 1.6 1.6 0.00 0.00 0.00 41 1009.6
20260503171152 11 330 1.6 1.6 0.00 0.00 0.00 42 1009.8
20260503170649 11 177 3.2 4.8 0.00 0.00 0.00 41 1010.0
20260503170145 11 244 1.6 1.6 0.00 0.00 0.00 43 1009.7
20260503160107 11 318 0.0 1.6 0.00 0.00 0.00 44 1010.0
20260503150537 10 277 1.6 1.6 0.00 0.00 0.00 44 1010.4
20260503130926 8 357 1.6 1.6 0.00 0.00 0.00 60 1010.7
20260503130424 8 332 0.0 0.0 0.00 0.00 0.00 60 1010.6